Regional Weather Roundup
Issued by NWS New Orleans/Baton Rouge, LA

Home | Current Version | Previous Version | Graphics & Text | Print | Product List | Glossary On
Versions: 1 2 3 4 5 6 7 8 9 10 11 12 13 14 15 16 17 18 19 20 21 22 23 24 25 26 27 28 29 30 31 32 33 34 35 36 37 38 39 40 41 42 43 44 45 46 47 48 49 50
934
ASUS44 KLIX 261205
RWRLIX
NEW ORLEANS REGIONAL WEATHER ROUNDUP
NATIONAL WEATHER SERVICE NEW ORLEANS LA
700 AM CDT SAT JUL 26 2014

NOTE: "FAIR" INDICATES FEW OR NO CLOUDS BELOW 12,000 FEET WITH NO
      SIGNIFICANT WEATHER AND/OR OBSTRUCTIONS TO VISIBILITY.
      SKY/WX - SKY CONDITION AND SIGNIFICANT WEATHER.
      TMP - AIR TEMPERATURE.     DP    - DEWPOINT TEMPERATURE.
      RH  - RELATIVE HUMIDITY.   PRES  - PRESSURE.
      HI  - HEAT INDEX.          WCI   - WIND CHILL INDEX.

*  THESE STATIONS ARE NOT NWS OR FAA STATIONS AND ARE NOT UNDER
   NWS QUALITY CONTROL.

LAZ038-040-048-061>063-065>067-069-261300-
SOUTHEAST LOUISIANA

CITY           SKY/WX    TMP DP  RH WIND       PRES   REMARKS
N.O. AUDUBON     N/A     78  75  91 MISG        N/A
6HR MIN TEMP:  78; 6HR MAX TEMP:  82;

N.O. INTL ARPT PTCLDY    78  75  90 CALM      30.05R
6HR MIN TEMP:  77; 6HR MAX TEMP:  80;

N.O. LAKEFRONT CLEAR     81  76  84 SW6       30.05R
6HR MIN TEMP:  80; 6HR MAX TEMP:  82;

N.O. DOWNTOWN*   N/A     79  72  78 CALM      30.06R
6HR MIN TEMP:  79; 6HR MAX TEMP:  82;

SLIDELL        CLEAR     77  74  90 CALM      30.04R
6HR MIN TEMP:  75; 6HR MAX TEMP:  79;

BATON ROUGE    CLEAR     78  75  90 W6        30.04R
6HR MIN TEMP:  77; 6HR MAX TEMP:  81;

BOOTHVILLE     PTCLDY    80  76  87 NW5       30.06R
6HR MIN TEMP:  80; 6HR MAX TEMP:  83;

BELLE CHASSE   PTCLDY    77  73  87 CALM      30.05R
6HR MIN TEMP:  75; 6HR MAX TEMP:  79;

BOGALUSA*        N/A     76  73  88 CALM      30.06R FOG
6HR MIN TEMP:  75; 6HR MAX TEMP:  78;

GALLIANO*      NOT AVBL
NEW ROADS*     PTSUNNY   74  74  98 CALM      30.05R FOG
6HR MIN TEMP:  74; 6HR MAX TEMP:  78;

GONZALES*        N/A     75  75 100 CALM      30.04S
6HR MIN TEMP:  74; 6HR MAX TEMP:  78;

HAMMOND*       CLEAR     77  73  88 CALM      30.06R
HOUMA*         NOT AVBL
PORT FOURCHON* SUNNY     82  75  78 W8        30.07R

$$

MSZ070-080>082-261300-
SOUTHERN MISSISSIPPI

CITY           SKY/WX    TMP DP  RH WIND       PRES   REMARKS
MCCOMB         CLEAR     74  72  93 CALM      30.06R FOG
6HR MIN TEMP:  72; 6HR MAX TEMP:  77;

GULFPORT       CLEAR     80  76  87 CALM      30.04R FOG
6HR MIN TEMP:  78; 6HR MAX TEMP:  81;

BILOXI         CLEAR     79  77  93 VRB2      30.04R
6HR MIN TEMP:  78; 6HR MAX TEMP:  80;

PASCAGOULA     CLEAR     77  76  96 W3        30.04R
6HR MIN TEMP:  74; 6HR MAX TEMP:  78;

STENNIS ARPT*  CLEAR    N/A N/A N/A CALM      30.05  FOG

$$

COASTAL OBSERVATIONS
LAKE AND NEARSHORE STATIONS

STATION/POSITION TIME  TEMP    WIND        PRES    WAVE
                       AIR SEA DIR/SP/G            HT/PER
                 (UTC) (F)     (DEG/KT/KT) (MB)    (FT/S)
PASCAGOULA       1200   80     280/  6/  9 1016.7
WAVELAND YACHT   1200   79     270/  2/  3 1016.8
GRAND ISLE       1200   82 85  240/  4/  6 1018.3
SOUTHWEST PASS   1200   83 84  280/ 11/ 13 1018.2
NEW CANAL        1200   81 83  230/  3/  4 1018.1
SHELL BEACH      1200   80 81  260/  5/  6 1017.5

OFFSHORE STATIONS

STATION/POSITION TIME  TEMP    WIND        PRES    WAVE
                       AIR SEA DIR/SP/G            HT/PER
                 (UTC) (F)     (DEG/KT/KT) (MB)    (FT/S)
64 S DAUPHIN ISL 1105   83 84  280/ 12/ 14 1018.0

$$




USA.gov is the U.S. government's official web portal to all federal, state and local government web resources and services.